Location: American Medical Response
(33.3472°N, 96.5511°W)
Time: 13:50:37
(UTC+00:00)

SL-27 R/B - Pass Details

Date: 08 December 2021
Orbit: 416 x 464 km, 74.7° (Epoch: 29 January)

Event Time Altitude Azimuth Distance (km) Brightness Sun altitude
Exits shadow 12:28:22 11° 321° (NW) 1,514 4.5 -10.3°
Maximum altitude 12:31:16 31° 259° (W) 820 3.3 -9.7°
Drops below altitude 10° 12:34:22 10° 195° (SSW) 1,570 5.2 -9.1°
Sets 12:36:33 0° 185° (S) 2,427 6.3 -8.7°
